Location: Maynard F. Jordan Observatory
(44.9000°N, 68.6700°W)
Time: 04:25:55
(UTC-04:00)

Cosmos 2297 Rocket - Visible Passes

Search period start: 25 April 2014 00:00
Search period end: 05 May 2014 00:00
Orbit: 838 x 845 km, 71.0° (Epoch: 23 April)

Date Brightness Start Highest point End Pass type
(mag) Time Alt. Az. Time Alt. Az. Time Alt. Az.
25 Apr 5.4 02:03:47 10° NNE 02:05:41 12° NE 02:07:34 10° ENE visible
25 Apr 3.1 03:45:37 10° NNW 03:51:09 52° ENE 03:56:39 10° SE visible
25 Apr 5.0 20:24:31 10° W 20:28:48 22° NW 20:33:06 10° N visible
26 Apr 5.3 01:49:01 10° NNE 01:50:37 11° NE 01:52:13 10° NE visible
26 Apr 3.2 03:30:38 10° NNW 03:36:09 49° ENE 03:41:37 10° SE visible
26 Apr 5.0 20:09:23 10° W 20:13:46 22° NW 20:18:10 10° N visible
27 Apr 5.3 01:34:17 10° NNE 01:35:34 11° NE 01:36:50 10° NE visible
27 Apr 3.2 03:15:40 10° NNW 03:21:08 47° ENE 03:26:34 10° SE visible
28 Apr 5.3 01:19:42 10° NNE 01:20:30 10° NE 01:21:18 10° NE visible
28 Apr 3.3 03:00:41 10° NNW 03:06:08 45° ENE 03:11:31 10° SE visible
28 Apr 3.0 04:45:08 10° NW 04:49:57 29° WSW 04:54:45 10° SSW visible
29 Apr 3.3 02:45:42 10° NNW 02:51:07 43° ENE 02:56:28 10° SE visible
29 Apr 2.9 04:30:05 10° NW 04:34:59 31° WSW 04:39:52 10° SSW visible
30 Apr 3.4 02:30:44 10° NNW 02:36:06 41° ENE 02:41:25 10° SE visible
30 Apr 2.9 04:15:02 10° NW 04:20:01 33° WSW 04:24:58 10° SSW visible
01 May 3.4 02:15:46 10° NNW 02:21:05 40° NE 02:26:21 10° SE visible
01 May 2.8 04:00:00 10° NW 04:05:03 34° WSW 04:10:04 10° SSW visible
02 May 3.5 02:00:47 10° NNW 02:06:04 38° NE 02:11:18 10° ESE visible
02 May 2.7 03:44:57 10° NW 03:50:04 36° WSW 03:54:31 13° SSW visible
03 May 3.5 01:45:49 10° NNW 01:51:02 36° NE 01:56:13 10° ESE visible
03 May 2.7 03:29:55 10° NW 03:35:06 38° WSW 03:38:03 22° SSW visible
04 May 3.6 01:30:51 10° NNW 01:36:01 35° NE 01:40:22 14° ESE visible
04 May 2.6 03:14:53 10° NW 03:20:07 40° WSW 03:22:05 30° SSW visible
